Home   Weather   Mutsamudu   Past weeks

Flag for Comoros Past Weather in Mutsamudu, Comoros — Yesterday and Last 2 Weeks

Now
77 °F

Passing clouds.


Feels Like: 78 °F
Forecast: 79 / 82 °F
Wind: 3 mph from North

Location: Dzaoudzi / Pamanzi Mayotte

Current Time: Jan 21, 2017 at 5:26:49 am

Latest Report: Jan 21, 2017 at 4:30 am


Visibility: N/A

Pressure: 29.86 "Hg

Humidity: 89%

Dew Point: 73 °F

Location of MutsamuduLocation

Past Weather in Mutsamudu — Graph

°F

Mutsamudu Temperature Yesterday

Maximum temperature yesterday: 88 °F (at 12:00 pm)
Minimum temperature yesterday: 79 °F (at 12:00 am)
Average temperature yesterday: 83 °F

High & Low Weather Summary for the Past Weeks

 TemperatureHumidityPressure
High91 °F (Jan 6, 2:00 pm)94% (Jan 7, 11:30 pm)29.95 "Hg (Jan 7, 11:30 pm)
Low75 °F (Jan 11, 8:06 am)43% (Jan 6, 11:00 am)29.77 "Hg (Jan 7, 4:00 pm)
Average82 °F73%29.87 "Hg
* Reported Jan 6 4:00 am — Jan 21 4:00 am, Mutsamudu, Weather by CustomWeather, © 2017

Note: Actual official high and low records may vary slightly from our data, if they occured in-between our weather recording intervals... More about our weather records

Advertising

Mutsamudu Weather History for the Previous 24 Hours

Scroll right to see more
 ConditionsComfort  
Time TempWeatherWind HumidityBarometerVisibility
4:00 am
Sat, Jan 21
79 °FWarm.2 mph79%29.86 "HgN/A
3:30 am79 °FWarm.5 mph79%29.86 "HgN/A
3:00 am79 °FWarm.3 mph84%29.86 "HgN/A
2:30 am79 °FPassing clouds.3 mph84%29.86 "HgN/A
2:00 am79 °FPassing clouds.3 mph84%29.86 "HgN/A
1:30 am79 °FOvercast.5 mph84%29.89 "HgN/A
1:00 am79 °FWarm.3 mph79%29.89 "HgN/A
12:30 am79 °FWarm.3 mph79%29.89 "HgN/A
12:00 am81 °FPassing clouds.5 mph74%29.89 "HgN/A
11:30 pm
Fri, Jan 20
81 °FPassing clouds.6 mph79%29.92 "HgN/A
11:00 pm81 °FPassing clouds.5 mph79%29.92 "HgN/A
10:30 pm81 °FPassing clouds.3 mph79%29.92 "HgN/A
10:00 pm81 °FWarm.3 mph79%29.92 "HgN/A
9:30 pm82 °FPassing clouds.7 mph74%29.92 "HgN/A
9:00 pm82 °FPassing clouds.7 mph70%29.92 "HgN/A
8:30 pm82 °FPassing clouds.7 mph70%29.89 "HgN/A
8:00 pm82 °FPartly cloudy.6 mph74%29.89 "HgN/A
7:30 pm82 °FPassing clouds.7 mph74%29.89 "HgN/A
7:00 pm82 °FPassing clouds.7 mph74%29.89 "HgN/A
6:30 pm82 °FPassing clouds.7 mph74%29.86 "HgN/A
6:00 pm84 °FPassing clouds.6 mph74%29.86 "HgN/A
5:30 pm84 °FPassing clouds.8 mph74%29.83 "HgN/A
5:00 pm86 °FScattered clouds.7 mph70%29.83 "HgN/A
4:30 pm86 °FScattered clouds.12 mph66%29.83 "HgN/A
4:00 pm86 °FPassing clouds.13 mph70%29.83 "HgN/A
3:30 pm88 °FScattered clouds.12 mph66%29.83 "HgN/A
3:00 pm88 °FScattered clouds.13 mph66%29.83 "HgN/A
2:30 pm88 °FScattered clouds.14 mph66%29.86 "HgN/A
2:00 pm88 °FScattered clouds.14 mph66%29.86 "HgN/A
1:30 pm88 °FPassing clouds.13 mph62%29.86 "HgN/A
1:00 pm88 °FPassing clouds.13 mph62%29.86 "HgN/A
12:00 pm88 °FPassing clouds.14 mph62%29.89 "HgN/A
11:30 am86 °FScattered clouds.12 mph66%29.89 "HgN/A
11:00 am86 °FPassing clouds.14 mph66%29.92 "HgN/A
10:30 am86 °FPassing clouds.14 mph70%29.92 "HgN/A
10:00 am86 °FPassing clouds.14 mph70%29.92 "HgN/A
9:36 am86 °FScattered clouds.14 mph66%29.92 "HgN/A
9:00 am86 °FScattered clouds.9 mph66%29.92 "HgN/A
8:30 am86 °FScattered clouds.13 mph66%29.92 "HgN/A
8:00 am84 °FScattered clouds.12 mph70%29.92 "HgN/A
7:34 am84 °FScattered clouds.12 mph70%29.92 "HgN/A
7:08 am82 °FScattered clouds.10 mph74%29.92 "HgN/A
6:38 am81 °FScattered clouds.8 mph79%29.89 "HgN/A
6:00 am81 °FScattered clouds.9 mph79%29.89 "HgN/A
5:30 am81 °FPassing clouds.12 mph74%29.89 "HgN/A
5:00 am81 °FPartly cloudy.10 mph74%29.86 "HgN/A
Weather by CustomWeather, © 2017

See weather overviewHow to use our weather pages